Regional Weather Roundup
Issued by NWS

Home | Current Version | Previous Version | Graphics & Text | Print | Product List | Glossary On
Versions: 1 2 3 4 5 6 7 8 9 10 11 12 13 14 15 16 17 18 19 20 21 22 23 24 25 26 27 28 29 30 31 32 33 34 35 36 37 38 39 40 41 42 43 44 45 46 47 48 49 50
000
ASUS45 KBOU 031307
RWRCO

WEATHER ROUNDUP FOR COLORADO
NATIONAL WEATHER SERVICE DENVER/BOULDER CO
600 AM MST TUE MAR 03 2015

NOTE: "FAIR" INDICATES FEW OR NO CLOUDS BELOW 12000 FEET WITH NO
SIGNIFICANT WEATHER AND/OR OBSTRUCTIONS TO VISIBILITY.

COZ001>005-013-030-031-031400-
...NORTHWEST COLORADO...

CITY           SKY/WX    TMP DP  RH WIND       PRES   REMARKS
CRAIG          LGT SNOW  27  25  92 W10       29.78R VSB 1   WCI  17
HAYDEN         CLOUDY    25  21  86 W9        29.76R VSB 3/4 WCI  15
MEEKER         FLURRIES  31  26  82 W10       29.77R WCI  22
MOUNT WERNER   NOT AVBL
STEAMBOAT SPGS CLOUDY    25  23  91 W24G30    29.74R VSB 1   WCI  10
WALDEN         CLOUDY    23  19  86 W12       29.68R WCI  12
$$

COZ006>008-011-031400-
...WEST CENTRAL VALLEYS...

CITY           SKY/WX    TMP DP  RH WIND       PRES   REMARKS
GRAND JUNCTION CLOUDY    33  28  81 VRB5      29.82S WCI  29
MONTROSE       PTCLDY    34  22  61 N3        29.85S
EAGLE          MOCLDY    28  27  93 W7        29.79S WCI  21
RIFLE          PTCLDY    33  26  75 E6        29.80R WCI  28
DELTA          CLOUDY    37  28  70 SW3       29.84S
NUCLA          MOCLDY    34  27  75 CALM      29.89S
$$

COZ017>023-064>068-031400-
...SOUTHWEST COLORADO...

CITY           SKY/WX    TMP DP  RH WIND       PRES   REMARKS
DURANGO        CLOUDY    24  23  96 SW6       29.90R WCI  17
CORTEZ         CLOUDY    31  28  89 NE3       29.90S
PAGOSA SPRINGS CLOUDY    27  26  94 CALM      29.89R
TELLURIDE      CLOUDY    23  13  65 CALM      29.85S
WOLF CREEK PAS   N/A     10   9  92 SW20G36   29.82S WCI  -8
$$

COZ009-010-012-014-032>034-037-058>063-031400-
...CENTRAL COLORADO...

CITY           SKY/WX    TMP DP  RH WIND       PRES   REMARKS
ASPEN          MOCLDY    19  16  88 S6        29.76R WCI  11
BUENA VISTA    MOCLDY    28  11  48 SW25G31   29.74R WCI  14
COPPER MTN     LGT SNOW  14   9  79 W17G24    29.70R VSB 1   WCI  -3
BERTHOUD PASS  NOT AVBL
COTTONWOOD PAS CLOUDY    25  10  54 N3        29.73R
GUNNISON       MOCLDY    27  14  59 SW12      29.82F WCI  16
KREMMLING      PTCLDY    30  21  69 SW15G23   29.73S WCI  19
LEADVILLE      FLURRIES  17  10  74 NW9       29.72R WCI   6
SALIDA         PTCLDY    32  15  49 W15G22    29.84R WCI  21
SUNLIGHT       CLOUDY    19  16  86 SW3         N/A
WILKERSON PASS PTCLDY    10   7  85 SW12G20   29.71S WCI  -4
$$

COZ069>075-031400-
...SAN LUIS VALLEY/SANGRE DE CRISTO MOUNTAINS...

CITY           SKY/WX    TMP DP  RH WIND       PRES   REMARKS
ALAMOSA        PTCLDY    25  16  68 S15       29.82R WCI  13
LA VETA PASS   CLOUDY    18  14  86 MISG      29.78R
SAGUACHE       PTCLDY    23  14  68 N6        29.79R WCI  16
$$

COZ035-036-038>040-031400-
...NORTHERN COLORADO FRONT RANGE...

CITY           SKY/WX    TMP DP  RH WIND       PRES   REMARKS
DENVER INTL AP PTCLDY    25  22  88 N20       29.72R WCI  11
DMNS CITY PARK   N/A     31  16  54 N2        29.71R
AURORA         PTCLDY    33  12  43 NW7       29.71R WCI  26
FRONT RANGE AP NOT AVBL
ERIE MUNI ARPT PTCLDY    28  21  76 NE15G25   29.74R WCI  16
BOULDER MUN AP PTCLDY    36  18  48 NE20      29.73R
CENTENNIAL     PTCLDY    30  13  49 W12       29.69R WCI  20
BROOMFIELD     PTCLDY    37  16  41 W21       29.70R
FORT COLLINS   CLEAR     27  18  69 NE8       29.77R WCI  18
LONGMONT       CLEAR     30  21  70 NE13G23   29.77R WCI  20
$$

COZ041-046-047-076>085-087-088-031400-
...PIKES PEAK/PALMER DIVIDE AND SOUTHERN FOOTHILLS...

CITY           SKY/WX    TMP DP  RH WIND       PRES   REMARKS
COLO. SPRINGS  PTCLDY    32  14  47 SW13      29.72R WCI  22
A. F. ACADEMY  CLEAR     33   9  37 W12       29.71R WCI  24
ELLICOTT       NOT AVBL
FALCON         CLEAR     28  11  49 W10       29.72S WCI  18
FORT CARSON    PTCLDY    32  16  51 W12       29.72R WCI  23
LIMON          MOCLDY    31  16  54 W8        29.66R WCI  23
MONUMENT HILL  PTCLDY    28  10  47 SW8       29.71R WCI  20
TRINIDAD       MOCLDY    40  18  41 W17G29    29.77R
$$

COZ042>045-048>051-090-091-031400-
...NORTHEAST COLORADO...

CITY           SKY/WX    TMP DP  RH WIND       PRES   REMARKS
GREELEY ARPT   PTCLDY    27  18  69 N13G20    29.75R WCI  16
AKRON          CLOUDY    28  27  96 N24G30    29.70R FOG     WCI  14
BURLINGTON     CLOUDY    35  24  64 NW15      29.66R WCI  25
WRAY           MOCLDY    32  29  91 N16G22    29.72R WCI  21
STERLING       CLOUDY    32  27  80 N25G31    29.76R WCI  19
HOLYOKE        NOT AVBL
FORT MORGAN    MOCLDY    28  25  87 N23G35    29.75R WCI  14
$$

COZ086-089-092>099-031400-
...SOUTHEAST COLORADO...

CITY           SKY/WX    TMP DP  RH WIND       PRES   REMARKS
PUEBLO         PTCLDY    40  19  43 W21       29.70R
LA JUNTA       MOCLDY    41  26  55 W18       29.72R
LAMAR          PTCLDY    40  27  59 W15       29.69R
SPRINGFIELD      N/A     38  27  64 SW13      29.73R
$$



USA.gov is the U.S. government's official web portal to all federal, state and local government web resources and services.